Home > Weather > Cincinnati > Past weeks

Flag for U.S.A. Weather for the Past 2 Weeks in Cincinnati, Ohio, U.S.A.

Now
38 °F

More clouds than sun.


Feels Like: 33 °F
Forecast: 29 / 41 °F
Wind: 7 mph from Northwest

Location: Cincinnati Municipal Airport Lunken Field

Current Time: Feb 8, 2016 at 1:07:11 PM

Latest Report: Feb 8, 2016 at 11:53 AM


Visibility: 10 mi

Pressure: 29.69 "Hg

Humidity: 79%

Dew point: 32 °F

Location of CincinnatiLocation

Historic Weather in Cincinnati — Graph

°F

Cincinnati Temperature Yesterday

Maximum temperature yesterday: 54 °F (at 2:53 PM)
Minimum temperature yesterday: 24 °F (at 5:53 AM)
Average temperature yesterday: 39 °F

High & Low Weather Summary for the Past Weeks

 TemperatureHumidityPressure
High64 °F (Jan 30, 2:53 PM)100% (Feb 2, 2:53 AM)30.49 "Hg (Feb 2, 2:53 AM)
Low19 °F (Feb 5, 6:53 AM)31% (Feb 7, 1:53 PM)29.59 "Hg (Feb 3, 12:53 AM)
Average39 °F69%30.03 "Hg
* Reported Jan 24 11:53 AM — Feb 8 11:53 AM, Cincinnati, Weather by CustomWeather, © 2016

Note: Actual official high and low records may vary slightly from our data, if they occured in-between our weather recording intervals... More about our weather records

Advertising

Cincinnati Weather History for the Previous 24 Hours

 ConditionsComfort  
Time TempWeatherWind HumidityBarometerVisibility
11:53 AM
Mon, Feb 8
38 °FMore clouds than sun.7 mph79%29.69 "Hg10 mi
10:53 AM37 °FOvercast.9 mph89%29.69 "Hg10 mi
9:53 AM37 °FOvercast.9 mph89%29.68 "Hg10 mi
8:55 AM34 °FLight rain. Fog.7 mph97%29.69 "Hg3 mi
7:53 AM37 °FLight rain. Overcast.10 mph93%29.69 "Hg10 mi
6:53 AM37 °FMostly cloudy.5 mph96%29.70 "Hg10 mi
5:53 AM36 °FOvercast.No wind97%29.70 "Hg10 mi
4:53 AM39 °FLight rain. Fog.9 mph86%29.72 "Hg6 mi
3:53 AM40 °FLight rain. Mostly cloudy.5 mph86%29.72 "Hg8 mi
2:53 AM43 °FLight rain. Mostly cloudy.7 mph68%29.73 "Hg10 mi
1:53 AM43 °FOvercast.5 mph51%29.74 "Hg10 mi
12:53 AM42 °FMostly cloudy.7 mph53%29.77 "Hg10 mi
11:53 PM
Sun, Feb 7
44 °FOvercast.9 mph45%29.78 "Hg10 mi
10:53 PM45 °FOvercast.10 mph42%29.81 "Hg10 mi
9:53 PM45 °FOvercast.10 mph42%29.84 "Hg10 mi
8:53 PM44 °FPassing clouds.9 mph45%29.86 "Hg10 mi
7:53 PM43 °FClear.8 mph47%29.88 "Hg10 mi
6:53 PM44 °FClear.9 mph45%29.90 "Hg10 mi
5:53 PM48 °FSunny.16 mph37%29.90 "Hg10 mi
4:53 PM51 °FSunny.14 mph33%29.91 "Hg10 mi
3:53 PM52 °FSunny.20 mph32%29.93 "Hg10 mi
2:53 PM54 °FSunny.18 mph31%29.94 "Hg10 mi
1:53 PM53 °FSunny.16 mph31%29.99 "Hg10 mi
Weather by CustomWeather, © 2016

See weather overviewHow to use our weather pages